Location: Bay Shore Mobile Home Park
(38.5762°N, 75.0841°W)
Time: 04:42:26
(UTC+00:00)

ISS - Visible Passes

Search period start: 11 October 2024 00:00
Search period end: 21 October 2024 00:00
Orbit: 411 x 424 km, 51.6° (Epoch: 10 October)

Date Brightness Start Highest point End Pass type
(mag) Time Alt. Az. Time Alt. Az. Time Alt. Az.
14 Oct -0.9 10:33:07 10° S 10:35:29 18° SE 10:37:51 10° E visible
15 Oct -0.3 09:47:11 10° SE 09:47:12 10° SE 09:47:14 10° SE visible
16 Oct -3.1 10:31:38 10° SW 10:34:53 57° SE 10:38:10 10° ENE visible
17 Oct -2.0 09:43:55 14° S 09:46:16 30° SE 09:49:14 10° ENE visible
18 Oct -1.1 08:57:56 16° ESE 08:57:56 16° ESE 08:59:49 10° E visible
18 Oct -3.4 10:30:51 10° WSW 10:34:03 47° NW 10:37:17 10° NE visible
19 Oct -3.9 09:44:33 59° WSW 09:45:06 85° NNW 09:48:26 10° NE visible
20 Oct -1.2 08:58:00 21° ENE 08:58:00 21° ENE 08:59:20 10° ENE visible
20 Oct -2.2 10:30:53 13° WNW 10:32:58 22° NNW 10:35:38 10° NNE visible
